Lid_Strength_Index
3 3 3 3 2 2 2 2 2 3 2 2 2 2 2 2 2 6 8 5 5 2 3 8 8 9 9 11 9 10 15 16 15 14 14 11 12 9 8 9 7 5 6 4 4
3 3 3 2 2 3 3 3 3 2 2 2 2 2 2 2 5 7 4 3 3 3 7 9 10 10 13 12 12 13 17 15 13 13 14 12 12 12 12 12 9 7 6 6 6
3 3 3 3 3 3 3 2 2 2 2 2 2 2 2 3 8 8 3 3 4 4 7 8 9 11 14 13 13 14 16 13 13 12 11 13 13 12 12 13 12 14 12 9 7
3 3 3 3 3 2 2 2 2 2 2 2 2 2 2 5 16 7 5 5 4 6 7 10 11 14 15 16 13 16 13 13 12 11 11 13 12 12 12 11 10 12 11 12 8
3 3 3 3 3 2 2 2 2 3 3 3 3 3 5 11 11 6 5 5 6 7 9 11 12 13 15 14 13 15 14 12 11 11 11 10 11 13 12 10 9 10 10 11 10
4 4 4 3 3 2 2 3 3 3 3 3 3 3 8 14 6 6 6 7 7 8 10 10 11 11 13 13 14 12 11 10 8 8 9 10 10 9 11 8 9 9 10 10 11
4 4 3 3 3 3 3 3 4 4 4 4 4 5 9 11 7 7 6 7 8 8 9 9 9 10 11 11 8 8 11 9 8 8 8 7 10 10 7 7 8 8 9 10 10
4 3 3 4 4 4 4 4 4 4 4 5 5 8 12 6 8 8 9 9 7 7 7 7 7 7 8 7 9 11 12 14 9 8 7 8 13 8 6 7 8 8 8 8 10
3 3 4 4 4 4 4 4 4 4 5 5 8 9 13 6 10 8 9 9 8 8 7 5 5 9 9 14 15 14 20 15 13 8 8 9 12 9 7 8 8 9 9 9 9
3 3 4 4 4 4 4 4 5 7 6 7 9 14 11 13 10 9 9 8 9 8 7 7 9 11 11 14 21 21 19 15 14 11 10 11 11 9 7 7 8 8 9 10 9
3 4 4 5 4 4 6 9 13 13 12 15 14 14 12 10 8 9 8 8 8 8 14 9 12 15 15 14 13 13 15 16 13 11 11 12 12 10 9 8 8 7 8 9 10
4 4 4 4 4 5 8 12 12 12 17 12 12 13 11 10 12 11 7 11 12 15 9 16 15 12 11 11 12 13 15 15 13 10 11 12 13 10 9 9 8 7 7 8 8
4 4 4 4 4 8 10 11 9 10 17 14 13 13 12 10 13 12 9 9 13 14 14 14 13 10 11 12 13 14 14 15 15 12 11 12 14 12 10 8 8 7 7 8 8
4 3 4 4 7 9 11 9 9 11 22 19 16 13 12 11 14 8 6 8 10 15 13 13 11 11 12 14 12 16 12 12 13 14 18 12 20 15 11 11 10 8 8 7 7
4 4 4 6 9 11 10 9 10 12 28 17 17 10 11 13 12 10 5 7 12 15 13 15 13 13 15 13 11 14 11 13 13 15 15 15 17 17 12 14 13 11 10 10 8
4 5 6 8 10 10 9 10 12 23 30 23 16 16 17 14 12 9 8 7 8 12 13 13 10 12 12 10 11 11 14 14 14 14 20 18 18 20 16 15 13 12 11 10 9
5 7 8 9 11 10 10 13 21 28 22 24 20 16 17 17 14 11 12 12 15 19 21 17 16 11 9 14 11 13 19 24 22 23 23 17 17 19 15 13 13 12 11 10 10
6 8 9 10 10 10 12 19 27 28 28 18 17 16 18 15 15 13 13 16 12 15 18 26 22 19 12 13 15 16 16 19 24 22 20 16 19 17 13 11 12 11 9 8 10
6 10 11 11 11 11 15 25 25 24 18 18 17 23 24 15 16 17 16 16 13 14 21 22 22 13 12 10 12 17 18 14 18 21 21 22 18 12 13 13 13 12 9 9 8
10 11 12 11 12 13 19 22 25 18 17 17 24 20 27 22 18 20 18 14 14 13 12 17 20 18 14 11 12 16 13 20 19 24 25 21 21 21 18 16 14 13 11 9 9
10 13 12 11 12 17 22 26 25 17 15 18 19 24 19 20 15 21 18 14 13 13 12 14 16 18 14 16 16 17 18 17 15 17 21 22 22 16 17 14 14 13 11 11 11
11 15 11 11 18 18 24 25 17 17 14 15 16 17 19 15 15 21 18 16 12 14 17 14 15 18 18 12 11 13 16 17 19 21 19 19 21 15 15 13 12 13 12 11 11
13 13 10 11 21 24 23 22 20 17 16 16 17 15 14 16 18 15 15 11 11 14 16 13 19 21 18 15 13 16 15 15 16 16 21 23 22 15 15 15 13 13 13 13 12
12 16 14 15 17 20 24 23 23 16 15 15 15 15 15 18 14 18 15 12 11 12 10 11 14 16 19 17 14 17 16 16 17 21 20 20 20 18 17 17 16 15 14 13 12
12 14 14 20 20 18 18 20 21 21 15 15 17 16 17 20 17 19 14 14 12 11 13 16 25 17 17 16 13 15 17 17 17 17 20 19 20 18 17 17 17 15 14 14 14
14 16 15 17 16 17 17 19 21 18 17 17 19 15 15 19 14 16 14 15 15 14 15 14 24 20 22 15 13 16 16 17 17 16 17 16 18 15 15 15 16 17 16 16 16
11 12 14 16 17 18 18 18 17 16 15 14 15 15 15 13 13 12 12 13 14 15 16 18 23 25 24 17 16 21 17 18 17 15 16 18 16 15 16 16 17 16 16 16 16